| time (UTC) | temp F | wind direction | speed MPH | gust MPH | rain 1hr in | rain 24hr in | rain mn in | humidity % | barometer mb |
| 20260506032506 | 47 | 90 | 2.0 | 7.0 | 0.00 | 0.00 | 0.00 | 99 | 1009.1 |
| 20260506032007 | 47 | 101 | 2.0 | 5.0 | 0.00 | 0.00 | 0.00 | 99 | 1009.1 |
| 20260506031507 | 47 | 131 | 0.0 | 2.0 | 0.00 | 0.00 | 0.00 | 99 | 1009.1 |
| 20260506031007 | 47 | 107 | 0.0 | 5.0 | 0.00 | 0.00 | 0.00 | 99 | 1009.1 |
| 20260506030507 | 47 | 99 | 0.0 | 5.0 | 0.00 | 0.00 | 0.00 | 99 | 1009.1 |
| 20260506030006 | 48 | 128 | 2.0 | 5.0 | 0.00 | 0.00 | 0.00 | 99 | 1009.1 |
| 20260506025507 | 48 | 98 | 2.0 | 5.0 | 0.00 | 0.00 | 0.00 | 99 | 1009.1 |
| 20260506024507 | 48 | 110 | 0.0 | 5.0 | 0.00 | 0.00 | 0.00 | 99 | 1009.1 |
| 20260506024008 | 48 | 103 | 0.0 | 0.0 | 0.00 | 0.00 | 0.00 | 98 | 1009.1 |
| 20260506023508 | 47 | 113 | 0.0 | 0.0 | 0.00 | 0.00 | 0.00 | 98 | 1009.1 |
| 20260506022506 | 47 | 131 | 0.0 | 0.0 | 0.00 | 0.00 | 0.00 | 98 | 1009.1 |
| 20260506022008 | 47 | 106 | 0.0 | 0.0 | 0.00 | 0.00 | 0.00 | 98 | 1009.1 |
| 20260506021007 | 47 | 139 | 0.0 | 0.0 | 0.00 | 0.00 | 0.00 | 97 | 1009.1 |
| 20260506020507 | 47 | 144 | 0.0 | 0.0 | 0.00 | 0.00 | 0.00 | 97 | 1009.1 |
| 20260506020006 | 47 | 98 | 0.0 | 0.0 | 0.00 | 0.00 | 0.00 | 97 | 1009.1 |
| 20260506015507 | 47 | 81 | 0.0 | 0.0 | 0.00 | 0.00 | 0.00 | 97 | 1009.1 |
| 20260506015007 | 47 | 39 | 0.0 | 2.0 | 0.00 | 0.00 | 0.00 | 97 | 1009.1 |
| 20260506014507 | 47 | 282 | 0.0 | 5.0 | 0.00 | 0.00 | 0.00 | 96 | 1009.1 |
| 20260506014008 | 47 | 271 | 2.0 | 5.0 | 0.00 | 0.00 | 0.00 | 96 | 1009.1 |
| 20260506013007 | 48 | 266 | 5.0 | 5.0 | 0.00 | 0.00 | 0.00 | 96 | 1009.1 |
| 20260506012506 | 47 | 227 | 3.0 | 5.0 | 0.00 | 0.00 | 0.00 | 96 | 1009.1 |
| 20260506012007 | 47 | 233 | 5.0 | 5.0 | 0.00 | 0.00 | 0.00 | 96 | 1009.1 |
| 20260506011507 | 47 | 257 | 5.0 | 5.0 | 0.00 | 0.00 | 0.00 | 96 | 1009.1 |
| 20260506011007 | 47 | 237 | 5.0 | 5.0 | 0.00 | 0.00 | 0.00 | 96 | 1009.1 |
| 20260506010507 | 47 | 234 | 3.0 | 5.0 | 0.00 | 0.00 | 0.00 | 95 | 1009.1 |
| 20260506005007 | 47 | 233 | 5.0 | 5.0 | 0.00 | 0.00 | 0.00 | 95 | 1009.1 |
| 20260506004506 | 47 | 234 | 2.0 | 5.0 | 0.00 | 0.00 | 0.00 | 95 | 1008.6 |
| 20260506004007 | 47 | 227 | 5.0 | 7.0 | 0.00 | 0.00 | 0.00 | 94 | 1008.1 |
| 20260506003506 | 47 | 242 | 5.0 | 7.0 | 0.00 | 0.00 | 0.00 | 94 | 1008.1 |
| 20260506003007 | 47 | 240 | 5.0 | 7.0 | 0.00 | 0.00 | 0.00 | 94 | 1009.1 |
| 20260506002507 | 47 | 227 | 5.0 | 5.0 | 0.00 | 0.00 | 0.00 | 94 | 1008.1 |
| 20260506002007 | 47 | 225 | 5.0 | 5.0 | 0.00 | 0.00 | 0.00 | 93 | 1008.1 |
| 20260506001507 | 47 | 231 | 5.0 | 5.0 | 0.00 | 0.00 | 0.00 | 93 | 1008.1 |
| 20260506001007 | 47 | 202 | 5.0 | 5.0 | 0.00 | 0.00 | 0.00 | 93 | 1008.1 |
| 20260506000507 | 47 | 225 | 2.0 | 5.0 | 0.00 | 0.00 | 0.00 | 92 | 1008.1 |
| 20260506000006 | 47 | 197 | 0.0 | 2.0 | 0.00 | 0.00 | 0.00 | 92 | 1008.1 |
| 20260505235006 | 47 | 289 | 0.0 | 2.0 | 0.00 | 0.00 | 0.00 | 91 | 1008.1 |
| 20260505234507 | 47 | 40 | 0.0 | 5.0 | 0.00 | 0.00 | 0.00 | 91 | 1008.1 |
| 20260505234007 | 47 | 306 | 3.0 | 5.0 | 0.00 | 0.00 | 0.00 | 90 | 1008.1 |
| 20260505233007 | 47 | 275 | 5.0 | 7.0 | 0.00 | 0.00 | 0.00 | 89 | 1008.1 |
| 20260505232006 | 47 | 282 | 5.0 | 9.0 | 0.00 | 0.00 | 0.00 | 87 | 1008.1 |
| 20260505231506 | 47 | 300 | 7.0 | 12.0 | 0.00 | 0.00 | 0.00 | 87 | 1008.1 |
| 20260505231007 | 47 | 281 | 7.0 | 12.0 | 0.00 | 0.00 | 0.00 | 86 | 1008.1 |
| 20260505230507 | 48 | 282 | 8.0 | 12.0 | 0.00 | 0.00 | 0.00 | 85 | 1008.1 |
| 20260505230007 | 48 | 295 | 7.0 | 9.0 | 0.00 | 0.00 | 0.00 | 84 | 1008.1 |
| 20260505225506 | 48 | 302 | 5.0 | 9.0 | 0.00 | 0.00 | 0.00 | 83 | 1007.7 |
| 20260505225006 | 48 | 289 | 5.0 | 9.0 | 0.00 | 0.00 | 0.00 | 82 | 1007.1 |
| 20260505224506 | 48 | 311 | 5.0 | 9.0 | 0.00 | 0.00 | 0.00 | 81 | 1007.1 |
| 20260505224007 | 48 | 312 | 5.0 | 12.0 | 0.00 | 0.00 | 0.00 | 80 | 1007.1 |
| 20260505223507 | 49 | 294 | 9.0 | 12.0 | 0.00 | 0.00 | 0.00 | 79 | 1007.1 |
| 20260505223007 | 49 | 298 | 9.0 | 14.0 | 0.00 | 0.00 | 0.00 | 78 | 1007.1 |
| 20260505222507 | 49 | 304 | 9.0 | 14.0 | 0.00 | 0.00 | 0.00 | 77 | 1007.1 |
| 20260505222007 | 50 | 299 | 8.0 | 14.0 | 0.00 | 0.00 | 0.00 | 77 | 1007.1 |
| 20260505220006 | 52 | 289 | 9.0 | 14.0 | 0.00 | 0.00 | 0.00 | 76 | 1006.1 |
| 20260505215506 | 52 | 287 | 9.0 | 14.0 | 0.00 | 0.00 | 0.00 | 75 | 1006.7 |
| 20260505215006 | 52 | 289 | 9.0 | 14.0 | 0.00 | 0.00 | 0.00 | 74 | 1006.1 |
| 20260505214506 | 52 | 288 | 10.0 | 16.0 | 0.00 | 0.00 | 0.00 | 72 | 1006.1 |
| 20260505214007 | 53 | 286 | 12.0 | 16.0 | 0.00 | 0.00 | 0.00 | 71 | 1006.1 |
| 20260505213507 | 53 | 287 | 9.0 | 16.0 | 0.00 | 0.00 | 0.00 | 70 | 1006.1 |
| 20260505213006 | 54 | 301 | 9.0 | 14.0 | 0.00 | 0.00 | 0.00 | 69 | 1005.1 |
| 20260505212007 | 54 | 293 | 8.0 | 16.0 | 0.00 | 0.00 | 0.00 | 69 | 1005.1 |
| 20260505211506 | 55 | 293 | 10.0 | 16.0 | 0.00 | 0.00 | 0.00 | 70 | 1004.3 |
| 20260505211006 | 55 | 293 | 10.0 | 18.0 | 0.00 | 0.00 | 0.00 | 69 | 1004.1 |
| 20260505210507 | 55 | 334 | 11.0 | 18.0 | 0.00 | 0.00 | 0.00 | 69 | 1004.1 |
| 20260505210006 | 56 | 302 | 10.0 | 18.0 | 0.00 | 0.00 | 0.00 | 69 | 1004.1 |
| 20260505205506 | 58 | 306 | 9.0 | 18.0 | 0.00 | 0.00 | 0.00 | 68 | 1004.1 |
| 20260505205006 | 60 | 339 | 12.0 | 16.0 | 0.00 | 0.00 | 0.00 | 67 | 1004.1 |
| 20260505204506 | 60 | 288 | 12.0 | 16.0 | 0.00 | 0.00 | 0.00 | 67 | 1003.1 |
| 20260505204007 | 61 | 287 | 9.0 | 16.0 | 0.00 | 0.00 | 0.00 | 66 | 1003.1 |
| 20260505203507 | 61 | 297 | 7.0 | 14.0 | 0.00 | 0.00 | 0.00 | 67 | 1003.1 |
| 20260505203006 | 61 | 304 | 7.0 | 14.0 | 0.00 | 0.00 | 0.00 | 67 | 1003.1 |
| 20260505202506 | 61 | 302 | 7.0 | 14.0 | 0.00 | 0.00 | 0.00 | 67 | 1003.1 |
| 20260505202006 | 62 | 308 | 5.0 | 12.0 | 0.00 | 0.00 | 0.00 | 67 | 1002.6 |
| 20260505201506 | 62 | 310 | 5.0 | 16.0 | 0.00 | 0.00 | 0.00 | 67 | 1003.1 |
| 20260505201006 | 62 | 279 | 11.0 | 16.0 | 0.00 | 0.00 | 0.00 | 67 | 1003.1 |
| 20260505200006 | 62 | 300 | 12.0 | 18.0 | 0.00 | 0.00 | 0.00 | 67 | 1002.3 |
| 20260505195006 | 61 | 300 | 10.0 | 14.0 | 0.00 | 0.00 | 0.00 | 67 | 1003.1 |
| 20260505194506 | 62 | 300 | 10.0 | 14.0 | 0.00 | 0.00 | 0.00 | 67 | 1003.1 |
| 20260505194006 | 62 | 287 | 11.0 | 14.0 | 0.00 | 0.00 | 0.00 | 67 | 1003.1 |
| 20260505193507 | 61 | 290 | 12.0 | 14.0 | 0.00 | 0.00 | 0.00 | 67 | 1002.6 |
| 20260505193007 | 61 | 282 | 12.0 | 14.0 | 0.00 | 0.00 | 0.00 | 67 | 1002.8 |
| 20260505192007 | 62 | 291 | 9.0 | 14.0 | 0.00 | 0.00 | 0.00 | 67 | 1002.1 |
| 20260505191507 | 62 | 312 | 7.0 | 12.0 | 0.00 | 0.00 | 0.00 | 67 | 1002.1 |
| 20260505191007 | 61 | 284 | 8.0 | 12.0 | 0.00 | 0.00 | 0.00 | 68 | 1002.1 |
| 20260505190506 | 61 | 289 | 7.0 | 12.0 | 0.00 | 0.00 | 0.00 | 68 | 1002.1 |
| 20260505185507 | 61 | 317 | 7.0 | 16.0 | 0.00 | 0.00 | 0.00 | 66 | 1002.1 |
| 20260505185006 | 61 | 298 | 9.0 | 18.0 | 0.00 | 0.00 | 0.00 | 65 | 1002.1 |
| 20260505184506 | 62 | 311 | 15.0 | 29.0 | 0.00 | 0.00 | 0.00 | 64 | 1002.1 |
| 20260505184007 | 68 | 286 | 20.0 | 29.0 | 0.00 | 0.00 | 0.00 | 61 | 1002.1 |
| 20260505183507 | 69 | 256 | 22.0 | 33.0 | 0.00 | 0.00 | 0.00 | 61 | 1001.1 |
| 20260505183006 | 69 | 252 | 26.0 | 33.0 | 0.00 | 0.00 | 0.00 | 61 | 1001.1 |
| 20260505182506 | 69 | 255 | 26.0 | 33.0 | 0.00 | 0.00 | 0.00 | 61 | 1000.6 |
| 20260505181507 | 69 | 240 | 26.0 | 33.0 | 0.00 | 0.00 | 0.00 | 61 | 1001.1 |
| 20260505181006 | 69 | 250 | 27.0 | 36.0 | 0.00 | 0.00 | 0.00 | 61 | 1001.1 |
| 20260505180507 | 69 | 246 | 29.0 | 36.0 | 0.00 | 0.00 | 0.00 | 61 | 1000.6 |
| 20260505180006 | 69 | 234 | 24.0 | 36.0 | 0.00 | 0.00 | 0.00 | 61 | 1000.3 |
| 20260505175506 | 69 | 242 | 26.0 | 36.0 | 0.00 | 0.00 | 0.00 | 61 | 1001.1 |
| 20260505175006 | 69 | 239 | 26.0 | 43.0 | 0.00 | 0.00 | 0.00 | 61 | 1001.1 |
| 20260505174506 | 69 | 243 | 28.0 | 43.0 | 0.00 | 0.00 | 0.00 | 62 | 1001.1 |
| 20260505174007 | 69 | 239 | 27.0 | 36.0 | 0.00 | 0.00 | 0.00 | 62 | 1000.3 |
| 20260505173506 | 69 | 249 | 30.0 | 36.0 | 0.00 | 0.00 | 0.00 | 62 | 1001.1 |
| 20260505173006 | 69 | 257 | 30.0 | 33.0 | 0.00 | 0.00 | 0.00 | 62 | 1000.8 |
| 20260505172505 | 70 | 253 | 25.0 | 31.0 | 0.00 | 0.00 | 0.00 | 62 | 1000.6 |
| 20260505172006 | 69 | 244 | 24.0 | 29.0 | 0.00 | 0.00 | 0.00 | 62 | 1001.1 |
| 20260505171507 | 69 | 253 | 22.0 | 38.0 | 0.00 | 0.00 | 0.00 | 63 | 1001.1 |
| 20260505171006 | 69 | 247 | 26.0 | 38.0 | 0.00 | 0.00 | 0.00 | 63 | 1001.1 |
| 20260505170507 | 68 | 239 | 28.0 | 36.0 | 0.00 | 0.00 | 0.00 | 63 | 1001.1 |
| 20260505170006 | 68 | 250 | 25.0 | 36.0 | 0.00 | 0.00 | 0.00 | 63 | 1000.1 |
| 20260505165006 | 68 | 257 | 26.0 | 36.0 | 0.00 | 0.00 | 0.00 | 63 | 1000.1 |
| 20260505164506 | 68 | 251 | 26.0 | 36.0 | 0.00 | 0.00 | 0.00 | 63 | 1000.7 |
| 20260505164006 | 68 | 245 | 22.0 | 26.0 | 0.00 | 0.00 | 0.00 | 63 | 1001.1 |
| 20260505163506 | 68 | 262 | 20.0 | 26.0 | 0.00 | 0.00 | 0.00 | 64 | 1001.1 |
| 20260505163008 | 68 | 259 | 20.0 | 26.0 | 0.00 | 0.00 | 0.00 | 64 | 1001.1 |
| 20260505162506 | 68 | 261 | 20.0 | 24.0 | 0.00 | 0.00 | 0.00 | 64 | 1001.1 |
| 20260505162007 | 68 | 257 | 19.0 | 26.0 | 0.00 | 0.00 | 0.00 | 64 | 1001.1 |
| 20260505161506 | 68 | 239 | 21.0 | 26.0 | 0.00 | 0.00 | 0.00 | 64 | 1001.1 |
| 20260505161006 | 68 | 254 | 20.0 | 26.0 | 0.00 | 0.00 | 0.00 | 64 | 1001.1 |
| 20260505160506 | 68 | 256 | 22.0 | 26.0 | 0.00 | 0.00 | 0.00 | 64 | 1001.1 |
| 20260505153006 | 68 | 246 | 18.0 | 22.0 | 0.00 | 0.00 | 0.00 | 65 | 1000.1 |
| 20260505152506 | 68 | 235 | 18.0 | 26.0 | 0.00 | 0.00 | 0.00 | 65 | 1000.1 |
| 20260505152006 | 68 | 254 | 21.0 | 26.0 | 0.00 | 0.00 | 0.00 | 65 | 1000.1 |
| 20260505151506 | 68 | 236 | 20.0 | 26.0 | 0.00 | 0.00 | 0.00 | 65 | 1000.1 |
| 20260505151006 | 67 | 237 | 21.0 | 26.0 | 0.00 | 0.00 | 0.00 | 65 | 1000.1 |
| 20260505150506 | 68 | 249 | 22.0 | 36.0 | 0.00 | 0.00 | 0.00 | 65 | 1000.1 |
| 20260505140506 | 71 | 233 | 20.0 | 33.0 | 0.00 | 0.00 | 0.00 | 63 | 998.6 |
| 20260505125006 | 68 | 219 | 13.0 | 18.0 | 0.00 | 0.00 | 0.00 | 68 | 999.1 |
| 20260505124505 | 68 | 216 | 12.0 | 18.0 | 0.00 | 0.00 | 0.00 | 68 | 999.1 |
| 20260505124006 | 68 | 203 | 14.0 | 18.0 | 0.00 | 0.00 | 0.00 | 68 | 999.6 |
| 20260505123006 | 68 | 215 | 12.0 | 18.0 | 0.00 | 0.00 | 0.00 | 69 | 999.1 |
| 20260505122505 | 67 | 224 | 12.0 | 14.0 | 0.00 | 0.00 | 0.00 | 69 | 999.1 |
| 20260505122006 | 67 | 220 | 9.0 | 14.0 | 0.00 | 0.00 | 0.00 | 69 | 999.1 |
| 20260505121505 | 67 | 209 | 10.0 | 14.0 | 0.00 | 0.00 | 0.00 | 69 | 999.1 |
| 20260505121006 | 67 | 198 | 9.0 | 14.0 | 0.00 | 0.00 | 0.00 | 70 | 999.1 |
| 20260505120005 | 66 | 200 | 10.0 | 14.0 | 0.00 | 0.00 | 0.00 | 70 | 999.1 |
| 20260505115506 | 66 | 205 | 12.0 | 16.0 | 0.00 | 0.00 | 0.00 | 70 | 999.1 |
| 20260505115006 | 66 | 211 | 12.0 | 16.0 | 0.00 | 0.00 | 0.00 | 70 | 999.1 |
| 20260505114506 | 66 | 210 | 12.0 | 18.0 | 0.00 | 0.00 | 0.00 | 71 | 999.1 |
| 20260505114006 | 66 | 199 | 12.0 | 18.0 | 0.00 | 0.00 | 0.00 | 71 | 999.1 |
| 20260505113506 | 66 | 208 | 12.0 | 18.0 | 0.00 | 0.00 | 0.00 | 71 | 999.1 |
| 20260505113006 | 66 | 211 | 14.0 | 18.0 | 0.00 | 0.00 | 0.00 | 71 | 999.1 |
| 20260505112505 | 66 | 211 | 12.0 | 16.0 | 0.00 | 0.00 | 0.00 | 72 | 999.1 |
| 20260505112006 | 65 | 211 | 13.0 | 16.0 | 0.00 | 0.00 | 0.00 | 72 | 999.1 |
| 20260505111506 | 65 | 211 | 12.0 | 16.0 | 0.00 | 0.00 | 0.00 | 72 | 999.1 |
| 20260505111006 | 65 | 212 | 12.0 | 16.0 | 0.00 | 0.00 | 0.00 | 73 | 999.1 |
| 20260505110506 | 64 | 195 | 12.0 | 16.0 | 0.00 | 0.00 | 0.00 | 74 | 999.1 |
| 20260505102006 | 62 | 208 | 9.0 | 14.0 | 0.00 | 0.00 | 0.00 | 77 | 998.2 |
| 20260505101505 | 62 | 199 | 9.0 | 14.0 | 0.00 | 0.00 | 0.00 | 77 | 999.1 |
| 20260505101006 | 62 | 193 | 10.0 | 16.0 | 0.00 | 0.00 | 0.00 | 77 | 998.1 |
| 20260505100506 | 62 | 191 | 12.0 | 16.0 | 0.00 | 0.00 | 0.00 | 77 | 999.1 |
| 20260505100006 | 62 | 189 | 12.0 | 16.0 | 0.00 | 0.00 | 0.00 | 77 | 998.1 |
| 20260505095506 | 62 | 193 | 12.0 | 16.0 | 0.00 | 0.00 | 0.00 | 77 | 998.1 |
| 20260505095008 | 62 | 191 | 12.0 | 18.0 | 0.00 | 0.00 | 0.00 | 77 | 998.1 |
| 20260505094507 | 62 | 196 | 13.0 | 18.0 | 0.00 | 0.00 | 0.00 | 77 | 998.6 |
| 20260505094008 | 62 | 183 | 14.0 | 18.0 | 0.00 | 0.00 | 0.00 | 77 | 998.1 |
| 20260505093507 | 62 | 191 | 14.0 | 18.0 | 0.00 | 0.00 | 0.00 | 77 | 998.1 |
| 20260505093007 | 62 | 191 | 12.0 | 20.0 | 0.00 | 0.00 | 0.00 | 77 | 998.1 |
| 20260505092507 | 62 | 192 | 14.0 | 20.0 | 0.00 | 0.00 | 0.00 | 77 | 998.1 |
| 20260505092007 | 62 | 183 | 14.0 | 18.0 | 0.00 | 0.00 | 0.00 | 77 | 998.1 |
| 20260505091507 | 62 | 194 | 14.0 | 18.0 | 0.00 | 0.00 | 0.00 | 78 | 998.9 |
| 20260505091007 | 62 | 187 | 14.0 | 18.0 | 0.00 | 0.00 | 0.00 | 78 | 999.1 |
| 20260505090508 | 62 | 195 | 14.0 | 16.0 | 0.00 | 0.00 | 0.00 | 79 | 998.6 |
| 20260505090007 | 62 | 187 | 12.0 | 16.0 | 0.00 | 0.00 | 0.00 | 80 | 999.1 |
| 20260505085507 | 61 | 196 | 12.0 | 16.0 | 0.00 | 0.00 | 0.00 | 81 | 999.1 |
| 20260505085007 | 61 | 181 | 9.0 | 12.0 | 0.00 | 0.00 | 0.00 | 81 | 999.1 |
| 20260505084507 | 61 | 187 | 9.0 | 12.0 | 0.00 | 0.00 | 0.00 | 81 | 999.1 |
| 20260505084007 | 61 | 190 | 9.0 | 14.0 | 0.00 | 0.00 | 0.00 | 82 | 999.1 |
| 20260505083007 | 60 | 179 | 9.0 | 14.0 | 0.00 | 0.00 | 0.00 | 83 | 999.1 |
| 20260505082507 | 60 | 174 | 9.0 | 14.0 | 0.00 | 0.00 | 0.00 | 83 | 999.1 |
| 20260505082008 | 60 | 183 | 10.0 | 14.0 | 0.00 | 0.00 | 0.00 | 83 | 999.1 |
| 20260505081507 | 60 | 195 | 12.0 | 14.0 | 0.00 | 0.00 | 0.00 | 83 | 999.1 |
| 20260505081007 | 60 | 181 | 12.0 | 14.0 | 0.00 | 0.00 | 0.00 | 83 | 999.1 |
| 20260505080507 | 60 | 182 | 12.0 | 14.0 | 0.00 | 0.00 | 0.00 | 83 | 999.1 |
| 20260505080006 | 60 | 203 | 10.0 | 14.0 | 0.00 | 0.00 | 0.00 | 83 | 999.1 |
| 20260505075508 | 60 | 199 | 12.0 | 16.0 | 0.00 | 0.00 | 0.00 | 83 | 999.1 |
| 20260505074507 | 61 | 225 | 16.0 | 26.0 | 0.00 | 0.00 | 0.00 | 80 | 999.1 |
| 20260505074008 | 61 | 224 | 20.0 | 29.0 | 0.00 | 0.00 | 0.00 | 79 | 999.1 |
| 20260505073008 | 61 | 233 | 21.0 | 26.0 | 0.00 | 0.00 | 0.00 | 76 | 1000.1 |
| 20260505072508 | 62 | 238 | 24.0 | 26.0 | 0.00 | 0.00 | 0.00 | 74 | 999.1 |
| 20260505072007 | 62 | 236 | 19.0 | 24.0 | 0.00 | 0.00 | 0.00 | 72 | 999.6 |
| 20260505071507 | 63 | 220 | 14.0 | 20.0 | 0.00 | 0.00 | 0.00 | 71 | 999.9 |
| 20260505070507 | 63 | 219 | 16.0 | 18.0 | 0.00 | 0.00 | 0.00 | 69 | 1000.1 |
| 20260505070011 | 64 | 230 | 16.0 | 18.0 | 0.00 | 0.00 | 0.00 | 68 | 1000.1 |
| 20260505064507 | 65 | 216 | 14.0 | 16.0 | 0.00 | 0.00 | 0.00 | 67 | 1000.1 |
| 20260505064008 | 64 | 233 | 10.0 | 16.0 | 0.00 | 0.00 | 0.00 | 68 | 1000.1 |
| 20260505063007 | 64 | 210 | 9.0 | 12.0 | 0.00 | 0.00 | 0.00 | 68 | 1000.1 |
| 20260505062507 | 64 | 212 | 9.0 | 12.0 | 0.00 | 0.00 | 0.00 | 67 | 1000.1 |
| 20260505062008 | 64 | 208 | 9.0 | 14.0 | 0.00 | 0.00 | 0.00 | 67 | 1000.1 |
| 20260505061507 | 64 | 206 | 12.0 | 14.0 | 0.00 | 0.00 | 0.00 | 67 | 1000.1 |
| 20260505061008 | 64 | 200 | 12.0 | 16.0 | 0.00 | 0.00 | 0.00 | 66 | 1000.1 |
| 20260505060508 | 64 | 206 | 12.0 | 16.0 | 0.00 | 0.00 | 0.00 | 66 | 1000.1 |
| 20260505060007 | 64 | 205 | 12.0 | 16.0 | 0.00 | 0.00 | 0.00 | 65 | 1000.1 |
| 20260505055507 | 64 | 198 | 12.0 | 16.0 | 0.00 | 0.00 | 0.00 | 65 | 1000.1 |
| 20260505055008 | 64 | 194 | 12.0 | 14.0 | 0.00 | 0.00 | 0.00 | 64 | 1000.1 |
| 20260505054507 | 64 | 192 | 12.0 | 14.0 | 0.00 | 0.00 | 0.00 | 63 | 1000.1 |
| 20260505054007 | 64 | 198 | 12.0 | 14.0 | 0.00 | 0.00 | 0.00 | 63 | 1000.1 |
| 20260505053008 | 65 | 195 | 9.0 | 14.0 | 0.00 | 0.00 | 0.00 | 61 | 1000.1 |
| 20260505052507 | 65 | 201 | 12.0 | 14.0 | 0.00 | 0.00 | 0.00 | 61 | 1000.1 |
| 20260505052008 | 65 | 188 | 12.0 | 14.0 | 0.00 | 0.00 | 0.00 | 61 | 1000.1 |
| 20260505051506 | 65 | 194 | 12.0 | 16.0 | 0.00 | 0.00 | 0.00 | 60 | 1000.1 |
| 20260505051007 | 65 | 210 | 12.0 | 16.0 | 0.00 | 0.00 | 0.00 | 60 | 1000.1 |
| 20260505050508 | 65 | 206 | 12.0 | 16.0 | 0.00 | 0.00 | 0.00 | 60 | 1000.1 |
| 20260505041506 | 65 | 195 | 10.0 | 14.0 | 0.00 | 0.00 | 0.00 | 55 | 1000.1 |
| 20260505041008 | 65 | 189 | 9.0 | 12.0 | 0.00 | 0.00 | 0.00 | 54 | 1000.1 |
| 20260505040507 | 65 | 200 | 9.0 | 14.0 | 0.00 | 0.00 | 0.00 | 54 | 1000.1 |
| 20260505040007 | 65 | 206 | 9.0 | 14.0 | 0.00 | 0.00 | 0.00 | 54 | 1000.1 |
| 20260505035506 | 65 | 206 | 9.0 | 12.0 | 0.00 | 0.00 | 0.00 | 53 | 1000.1 |
| 20260505035008 | 65 | 223 | 9.0 | 16.0 | 0.00 | 0.00 | 0.00 | 53 | 1000.1 |
| 20260505034506 | 65 | 213 | 12.0 | 16.0 | 0.00 | 0.00 | 0.00 | 52 | 1000.1 |
| 20260505034008 | 66 | 224 | 14.0 | 16.0 | 0.00 | 0.00 | 0.00 | 51 | 1000.1 |
| 20260505033507 | 66 | 218 | 14.0 | 20.0 | 0.00 | 0.00 | 0.00 | 51 | 1000.1 |
| 20260505033007 | 66 | 219 | 16.0 | 20.0 | 0.00 | 0.00 | 0.00 | 50 | 1000.1 |